Content
SEND FEEDBACK

Daily
Averages
Monthly
Summary
United States of America

LONG POND, PENNSYLVANIA


Home > North America > United States > Pennsylvania
Elevation: 1860 feet     Latitude: 41 03N     Longitude: 075 30W

WEATHER
 
SELECT A DAY
Number of Records: 185,882;   Date Range: 9/29/99 - 10/22/14
 
SHARE

PRINT THIS DATA

[ ← Previous Day ]
WEATHER ALMANAC - JANUARY 31, 2013
[ Next Day → ]
[ °C ]   °F
Weather ElementAverageHighLow
Temperature36.3 °F51.8 °F (3:29 am)19.9 °F (9:53 pm)
Dewpoint29.7 °F50 °F (2:39 am)9 °F (8:53 pm)
Humidity78.1 %100 % (2:30 am)47 % (3:53 pm)
Barometer29.35 in29.73 in (11:53 pm)29.01 in (4:53 am)
Wind Speed15.4 mph32.2 mph (9:53 am)
Wind Gust46 mph (5:08 am)
Weather ElementAverage
Visibility5.6 mi
Wind DirectionSW (221.4 °)

Weather ElementTotal
Precipitation1.86 in
Heating Degree Days29.2 (Base 65)
Averaged from 51 records on January 31, 2013
WEATHER CONDITIONS BREAKOUT
WIND DIRECTION BREAKOUT
WEATHER BY HOUR - JANUARY 31, 2013
[ °C ]   °F
Local TimeTemperatureDewpointHumidityBarometerVisibilityWind DirectionWind SpeedGust SpeedPrecipitationEventsConditions
12:53 AM50.0 °F48.9 °F96 %29.23 in0.8 miESE (120°)8.1 mph0.15 inRainRain
1:08 AM50.0 °F48.2 °F94 %29.21 in0.8 miSE (130°)6.9 mph0.05 inRainRain
1:20 AM50.0 °F48.2 °F94 %29.19 in1.0 miSE (130°)9.2 mph0.08 inRainRain
1:24 AM50.0 °F48.2 °F94 %29.18 in0.8 miESE (120°)6.9 mph0.09 inRainRain
1:44 AM50.0 °F48.2 °F94 %29.16 in0.5 miSE (130°)5.8 mph0.12 inFog-RainRain
1:49 AM50.0 °F48.2 °F94 %29.16 in0.5 miESE (120°)5.8 mph0.14 inFog-RainRain
1:53 AM50.0 °F48.9 °F96 %29.15 in0.8 miESE (120°)6.9 mph0.14 inRainRain
1:56 AM50.0 °F48.2 °F94 %29.14 in1.0 miEast (100°)6.9 mph0.01 inRainLight Rain
2:06 AM50.0 °F48.2 °F94 %29.14 in1.0 miCalm0.03 inRainRain
2:22 AM50.0 °F48.2 °F94 %29.11 in1.2 miCalm0.10 inRainRain
2:30 AM48.2 °F48.2 °F100 %29.10 in1.0 miSSE (150°)4.6 mph0.14 inRainRain
2:39 AM50.0 °F50.0 °F100 %29.10 in2.5 miCalm0.17 inRainRain
2:53 AM50.0 °F48.9 °F96 %29.10 in2.5 miCalm0.21 inRainRain
2:57 AM50.0 °F48.2 °F94 %29.10 in1.8 miSW (220°)3.5 mph0.01 inRainRain
3:06 AM50.0 °F48.2 °F94 %29.10 in3.0 miSW (230°)3.5 mph0.04 inRainRain
3:29 AM51.8 °F50.0 °F94 %29.11 in5.0 miWSW (240°)13.8 mph20.7 mph0.11 inRainRain
3:53 AM51.1 °F48.9 °F92 %29.08 in5.0 miWSW (250°)12.7 mph19.6 mph0.20 inRainRain
4:01 AM51.8 °F48.2 °F88 %29.08 in9.0 miWSW (250°)8.1 mph18.4 mph0.01 inRainLight Rain
4:34 AM50.0 °F48.2 °F94 %29.05 in10.0 miWSW (240°)11.5 mph0.01 inRainLight Rain
4:53 AM48.9 °F46.9 °F93 %29.01 in10.0 miWSW (240°)10.4 mph16.1 mph0.02 inRainLight Rain
5:08 AM44.6 °F39.2 °F81 %29.08 in9.0 miWest (270°)21.9 mph46.0 mph0.01 inRainLight Rain
5:35 AM41.0 °F33.8 °F76 %29.11 in10.0 miWest (270°)27.6 mph41.4 mph0.01 inMostly Cloudy
5:53 AM39.0 °F30.9 °F73 %29.12 in10.0 miWest (280°)26.5 mph35.7 mph0.01 inMostly Cloudy
6:53 AM37.0 °F28.0 °F70 %29.18 in10.0 miWest (270°)26.5 mph39.1 mphOvercast
7:53 AM35.1 °F25.0 °F67 %29.24 in10.0 miWest (280°)26.5 mph42.6 mphMostly Cloudy
8:53 AM34.0 °F21.9 °F61 %29.30 in10.0 miWNW (290°)28.8 mph40.3 mphOvercast
9:53 AM33.1 °F21.0 °F61 %29.34 in10.0 miWest (280°)32.2 mph44.9 mphOvercast
10:53 AM35.1 °F17.1 °F48 %29.36 in10.0 miWest (280°)21.9 mph44.9 mphScattered Clouds
11:53 AM33.1 °F16.0 °F50 %29.39 in10.0 miWest (270°)28.8 mph44.9 mphMostly Cloudy
12:53 PM33.1 °F17.1 °F52 %29.42 in10.0 miWest (280°)27.6 mph41.4 mphOvercast
1:53 PM30.9 °F14.0 °F50 %29.45 in10.0 miWest (280°)24.2 mph41.4 mphOvercast
2:53 PM28.9 °F14.0 °F54 %29.48 in10.0 miWest (280°)20.7 mph39.1 mph0.00 inMostly Cloudy
3:53 PM28.9 °F10.9 °F47 %29.52 in10.0 miWest (260°)25.3 mph38.0 mphOvercast
4:53 PM26.1 °F10.9 °F53 %29.56 in10.0 miWest (280°)20.7 mph39.1 mphMostly Cloudy
5:53 PM25.0 °F10.9 °F55 %29.62 in10.0 miWest (260°)18.4 mph34.5 mphScattered Clouds
6:13 PM23.0 °F17.6 °F80 %29.58 in1.8 miWest (280°)13.8 mph35.7 mph0.00 inSnowLight Snow
6:18 PM23.0 °F17.6 °F80 %29.58 in2.0 miWest (270°)11.5 mph20.7 mph0.00 inSnowLight Snow
6:24 PM23.0 °F17.6 °F80 %29.58 in8.0 miWest (260°)17.3 mph24.2 mph0.00 inScattered Clouds
6:46 PM23.0 °F17.6 °F80 %29.59 in2.5 miWest (270°)13.8 mph25.3 mph0.00 inSnowLight Snow
6:53 PM23.0 °F18.0 °F81 %29.65 in1.2 miWest (280°)13.8 mph23.0 mph0.00 inSnowLight Snow
6:58 PM23.0 °F17.6 °F80 %29.60 in0.8 miWest (270°)16.1 mph23.0 mph0.00 inSnowLight Snow
7:10 PM21.2 °F19.4 °F93 %29.61 in0.2 miWest (280°)20.7 mph31.1 mph0.00 inFog-SnowHeavy Snow
7:19 PM21.2 °F17.6 °F86 %29.61 in1.0 miWest (270°)18.4 mph32.2 mph0.00 inSnowLight Snow
7:33 PM21.2 °F15.8 °F80 %29.61 in1.2 miWest (270°)20.7 mph39.1 mph0.00 inSnowLight Snow
7:37 PM21.2 °F14.0 °F74 %29.61 in3.0 miWest (270°)20.7 mph34.5 mph0.00 inSnowLight Snow
7:44 PM21.2 °F12.2 °F68 %29.62 in7.0 miWest (270°)23.0 mph33.4 mph0.00 inOvercast
7:53 PM21.0 °F10.9 °F65 %29.69 in10.0 miWest (270°)20.7 mph33.4 mph0.00 inMostly Cloudy
8:53 PM21.0 °F9.0 °F60 %29.70 in10.0 miWest (280°)18.4 mph28.8 mphPartly Cloudy
9:53 PM19.9 °F9.0 °F62 %29.72 in10.0 miWest (280°)19.6 mph29.9 mphClear
10:53 PM19.9 °F9.0 °F62 %29.72 in10.0 miWest (280°)19.6 mph31.1 mphMostly Cloudy
11:53 PM19.9 °F10.0 °F65 %29.73 in10.0 miWest (270°)15.0 mph24.2 mphPartly Cloudy
Hourly data recorded from KMPO, located miles away from Long Pond, Pennsylvania







STORIES FROM OUR PARTNERS